Regional Weather Roundup
Issued by NWS

Home | Current Version | Previous Version | Text Only | Print | Product List | Glossary On
Versions: 1 2 3 4 5 6 7 8 9 10 11 12 13 14 15 16 17 18 19 20 21 22 23 24 25 26 27 28 29 30 31 32 33 34 35 36 37 38 39 40 41 42 43 44 45 46 47 48 49 50
755
ASUS43 KIND 240409
RWRIN

WEATHER ROUNDUP FOR INDIANA
NATIONAL WEATHER SERVICE INDIANAPOLIS IN
1200 AM EDT SAT JUN 24 2017

NOTE: "FAIR" INDICATES FEW OR NO CLOUDS BELOW 12,000 FEET WITH NO
SIGNIFICANT WEATHER AND/OR OBSTRUCTIONS TO VISIBILITY.

* - STATION DOES NOT REPORT WEATHER SUCH AS PRECIPITATION OR FOG.

+ - STATION NOT QUALITY CONTROLLED BY THE NATIONAL WEATHER SERVICE.
    USE DATA WITH CAUTION...ESPECIALLY DEWPOINT AND RELATIVE
    HUMIDITY OBSERVATIONS.

INZ001>003-010>013-019-020-240500-
NORTHWEST INDIANA

CITY           SKY/WX    TMP DP  RH WIND       PRES   REMARKS
GARY /AIRPORT/ PTCLDY    72  53  50 W12G18    29.83R
KNOX *+        PTCLDY    68  48  49 W6        29.81R
LA PORTE +     MOCLDY    69  56  61 NW9       29.82R
MONTICELLO +   MOCLDY    69  58  69 W8        29.82R
RENSSELAER +   MOCLDY    70  52  52 W10G18    29.84R
VALPARAISO     MOCLDY    72  55  55 NW5       29.82R

$$

LMZ046-743>745-240500-
SOUTHERN LAKE MICHIGAN

STATION/POSITION TIME  TEMP    WIND        PRES    WAVE
                       AIR SEA DIR/SP/G            HT
                 (UTC) (F)     (DEG/KT/KT) (MB)    (FT)
BURNS HARBOR     0340   70     290/ 11/ 13 1009.8R
MICHIGAN CITY    0340   70     290/ 18/ 20   N/A
5NW MICH CITY    0400   70 68  310/ 14/ 17   N/A     2

$$

INZ004-005-014>016-021>024-240500-
NORTH CENTRAL INDIANA

CITY           SKY/WX    TMP DP  RH WIND       PRES   REMARKS
GOSHEN         CLOUDY    66  55  67 SW8       29.79R
LOGANSPORT +   CLEAR     63  59  88 SW7       29.84R
PERU/GRISSOM   CLEAR     62  61  97 SW6       29.81R
ROCHESTER +    PTCLDY    70  55  60 SW6       29.82R
SOUTH BEND     CLOUDY    69  53  56 W8        29.80R
WARSAW +       CLOUDY    66  54  63 CALM      29.80R

$$

INZ006>009-017-018-025>027-240500-
NORTHEAST INDIANA

CITY           SKY/WX    TMP DP  RH WIND       PRES   REMARKS
AUBURN +       CLEAR     63  52  67 SW3       29.80S
FORT WAYNE     PTCLDY    61  56  83 SW6       29.81R
HUNTINGTON +   PTCLDY    62  57  83 CALM      29.81R
KENDALLVILLE + PTCLDY   N/A N/A N/A SW3       29.80R

$$

INZ028-029-035-036-043>045-051>053-240500-
WEST CENTRAL INDIANA

CITY           SKY/WX    TMP DP  RH WIND       PRES   REMARKS
CRAWFORDSVL +  MOCLDY    62  62 100 NW5       29.87R
GREENCASTLE +  CLEAR     61  61 100 CALM      29.88R
LAFAYETTE      MOCLDY    66  62  87 W7        29.84R
TERRE HAUTE    CLEAR     67  63  87 CALM      29.87R

$$

INZ030>032-037>040-046>048-054>057-064-065-240500-
CENTRAL INDIANA

CITY           SKY/WX    TMP DP  RH WIND       PRES   REMARKS
CP ATTERBURY + CLOUDY    63  61  94 CALM      29.88R
FRANKFORT +    PTCLDY    66  62  86 SW5       29.86R
GREENWOOD *+   PTCLDY    64  61  88 SW3       29.88R
INDIANAPOLIS   CLOUDY    63  60  90 SW7       29.86R
-EAGLE CREEK   CLEAR     64  60  87 CALM      29.86R
MARION +       PTCLDY    61  57  88 SW5       29.84R
MT COMFORT *+  PTCLDY    64  61  88 W5        29.86R
SHELBYVILLE    PTCLDY    65  60  84 SW6       29.86R
ZIONSVILLE +   CLEAR     63  61  93 SW7       29.87R

$$

INZ033-034-041-042-049-050-058-059-240500-
EAST CENTRAL INDIANA

CITY           SKY/WX    TMP DP  RH WIND       PRES   REMARKS
MUNCIE         CLEAR     66  60  81 SW6       29.84R
RICHMOND +     CLEAR     61  61 100 SW6       29.86R

$$

INZ060-061-067>069-081>083-085>088-240500-
SOUTHWEST INDIANA

CITY           SKY/WX    TMP DP  RH WIND       PRES   REMARKS
EVANSVILLE     CLOUDY    71  69  93 W5        29.91R
HUNTINGBURG *+ CLOUDY    68  65  90 W3        29.91R
WASHINGTON +   CLOUDY    66  64  94 CALM      29.89R

$$

INZ062-063-066-070>080-084-089>092-240500-
SOUTH CENTRAL AND SOUTHEAST INDIANA

CITY           SKY/WX    TMP DP  RH WIND       PRES   REMARKS
BEDFORD +        N/A     64  63  94 CALM      29.89R VSB 1
BLOOMINGTON    PTCLDY    64  62  93 CALM      29.89R
MADISON *+     CLOUDY    68  66  94 CALM      29.91R
NORTH VERNON + CLOUDY    64  64 100 S3        29.89R
SEYMOUR +      CLOUDY    68  66  94 CALM      29.88R

$$





USA.gov is the U.S. government's official web portal to all federal, state and local government web resources and services.